Location: Edinburgh
(55.9500°N, 3.1600°W)
Time: 15:35:15
(UTC+01:00)

Envisat - Pass Details

Date: 11 October 2017
Orbit: 764 x 766 km, 98.2° (Epoch: 18 October)

Event Time Altitude Azimuth Distance (km) Brightness Sun altitude
Exits shadow 18:49:51 - 107° (ESE) 2,930 5.4 -4.7°
Reaches altitude 10° 18:51:51 10° 95° (E) 2,308 4.8 -5.0°
Maximum altitude 18:55:23 19° 51° (NE) 1,750 4.4 -5.5°
Drops below altitude 10° 18:58:56 10° 6° (N) 2,317 5.4 -6.0°
Sets 19:01:48 0° 350° (N) 3,247 6.3 -6.4°
